Flag for Germany Weather past 2 weeks in Ilmenau, Thuringia, Germany

Now
39 °F

Overcast.


Feels Like: 34 °F
Forecast: 30 / 43 °F
Wind: 7 mph from West

Location: Erfurt-Bindersleben

Current Time: Mar 6, 2015 at 9:18:10 PM

Latest Report: Mar 6, 2015 at 8:50 PM


Visibility: N/A

Pressure: 30.57 "Hg

Humidity: 81%

Dew point: 34 °F

Location of IlmenauLocation

Historic Weather in Ilmenau — Graph

°F

Ilmenau temperature yesterday

Maximum temperature yesterday: 41 °F (at 2:20 PM)
Minimum temperature yesterday: 34 °F (at 12:20 AM)
Average temperature yesterday: 37 °F

Past Weeks' High & Low Weather Summary

 TemperatureHumidityPressure
High48 °F (Feb 21, 1:20 PM)100% (Feb 20, 12:20 AM)30.57 "Hg (Feb 20, 12:20 AM)
Low23 °F (Feb 19, 11:50 PM)43% (Feb 26, 1:50 PM)29.39 "Hg (Feb 23, 3:50 PM)
Average37 °F80%29.93 "Hg
* Reported Feb 19 8:20 PM — Mar 6 8:20 PM, Ilmenau, Weather by CustomWeather, © 2015

Note: Actual official high and low records may vary slightly from our data, if they occured in-between our weather recording intervals... More about our weather records

Advertising

Ilmenau weather history for previous 24 hours

 ConditionsComfort  
Time TempWeatherWind HumidityBarometerVisibility
8:20 PM
Fri, Mar 6
39 °FOvercast.9 mph81%30.57 "HgN/A
7:50 PM39 °FOvercast.9 mph81%30.57 "HgN/A
7:20 PM39 °FOvercast.9 mph81%30.57 "HgN/A
6:50 PM39 °FOvercast.10 mph81%30.54 "HgN/A
6:20 PM39 °FOvercast.12 mph81%30.54 "HgN/A
5:50 PM39 °FOvercast.10 mph81%30.54 "HgN/A
5:20 PM41 °FOvercast.9 mph76%30.54 "HgN/A
4:50 PM41 °FOvercast.12 mph76%30.54 "HgN/A
4:20 PM41 °FOvercast.10 mph76%30.54 "HgN/A
3:50 PM41 °FPartly sunny.9 mph76%30.54 "HgN/A
3:20 PM41 °FPartly sunny.10 mph76%30.54 "HgN/A
2:50 PM41 °FPartly sunny.10 mph76%30.54 "HgN/A
2:20 PM41 °FPartly sunny.9 mph76%30.54 "HgN/A
1:50 PM41 °FPartly sunny.9 mph76%30.57 "HgN/A
1:20 PM41 °FLight rain. Partly sunny.9 mph81%30.57 "HgN/A
12:50 PM41 °FLight rain. Broken clouds.9 mph76%30.57 "HgN/A
12:20 PM41 °FBroken clouds.7 mph81%30.57 "HgN/A
11:50 AM41 °FPartly sunny.9 mph76%30.57 "HgN/A
11:20 AM43 °FPartly sunny.9 mph71%30.57 "HgN/A
10:50 AM43 °FScattered clouds.12 mph71%30.57 "HgN/A
10:20 AM41 °FPartly sunny.10 mph81%30.57 "HgN/A
9:50 AM39 °FBroken clouds.13 mph81%30.57 "HgN/A
9:20 AM37 °FBroken clouds.12 mph87%30.57 "HgN/A
8:50 AM37 °FScattered clouds.9 mph87%30.57 "HgN/A
8:20 AM36 °FPassing clouds.8 mph87%30.57 "HgN/A
7:50 AM34 °FSunny.9 mph93%30.57 "Hg10 mi
7:20 AM32 °FSunny.10 mph100%30.57 "Hg10 mi
6:50 AM34 °FBroken clouds.10 mph87%30.57 "HgN/A
6:20 AM34 °FClear.9 mph93%30.57 "Hg10 mi
5:50 AM36 °FPassing clouds.9 mph87%30.57 "HgN/A
5:20 AM36 °FPartly cloudy.10 mph87%30.57 "HgN/A
4:50 AM36 °FPassing clouds.10 mph87%30.57 "HgN/A
4:20 AM36 °FPassing clouds.9 mph87%30.57 "HgN/A
3:50 AM36 °FPassing clouds.9 mph87%30.57 "HgN/A
3:20 AM36 °FClear.10 mph87%30.54 "Hg10 mi
2:50 AM36 °FClear.9 mph87%30.57 "Hg10 mi
2:20 AM36 °FPassing clouds.9 mph87%30.57 "HgN/A
1:50 AM36 °FPassing clouds.9 mph87%30.57 "HgN/A
1:20 AM36 °FPartly cloudy.9 mph93%30.57 "HgN/A
12:50 AM36 °FPartly cloudy.9 mph93%30.57 "HgN/A
12:20 AM36 °FPartly cloudy.9 mph93%30.57 "HgN/A
11:50 PM
Thu, Mar 5
36 °FPartly cloudy.9 mph87%30.57 "HgN/A
11:20 PM36 °FPassing clouds.9 mph87%30.57 "HgN/A
10:50 PM36 °FPassing clouds.9 mph87%30.57 "HgN/A
10:20 PM36 °FPassing clouds.10 mph87%30.57 "HgN/A
9:20 PM36 °FClear.9 mph87%30.57 "Hg10 mi
Weather by CustomWeather, © 2015

See weather overviewHow to use our weather pages